Погода в Степановском

Россия / Московская область     55°46′38″N   37°08′36″E
темп.,
°C
ветер,
м/с
пор.,
м/с
влажн.,
%
обл.,
%
осадки,
мм/ч
давл.,
гПа
погр.,
м
20 января, ср
ср2000:00−15зсз229783 0.1 101860
03:00−15з249784 0.1 101889
06:00−13з369690 0.1 1018198
09:00−14з369688 0.2 1019142
12:00−11з369571 0.0 1019248
15:00−10з379482 0.0 1019278
18:00−13зюз389691 0.0 1021161
21:00−15зюз379653 0.0 1022145
21 января, чт
чт2100:00−17юз36930 0.0 1022106
03:00−18юз379331 0.0 1021143
06:00−15ююз31091100 0.0 1020271
09:00−14ююз41188100 0.0 1017355
12:00−11ююз4994100 0.6 1015433
15:00−10юз3794100 1.6 1013511
18:00−11ююз2596100 0.3 1013158
21:00−10юз2396100 0.3 1013103
22 января, пт
пт2200:00−9ююз2396100 0.1 101391
03:00−7ю2596100 0.1 1013198
06:00−4ю2697100 0.4 1012246
09:000юз3796100 0.4 1012367
12:00+1ююз3899100 0.0 1012403
15:00−1ююз4796100 0.0 1011455
18:000ю3997100 0.1 1010432
21:00+1ююв3798100 0.3 1010271
23 января, сб
сб2300:000юз4998100 0.2 1010583
03:00+1юз3898100 0.3 1009311
06:00+1ююз4997100 0.0 1009428
09:000ююз51293100 0.1 1009473
12:00+1ююз51196100 0.1 1010534
15:00+1юз4998100 0.1 1011431
18:00+1ююз4897100 0.0 1012345
21:00+1ююз27100100 0.1 1012295
24 января, вс
вс2400:00+1ю3799100 0.4 1013276
03:00+1ю38100100 1.2 1013329
06:00+1ю3999100 0.1 1012331
09:00+1ююв3799100 0.1 1012242
12:00+1ююв410100100 0.0 1012290
15:00+1ююв410100100 0.3 1011290
18:00+1ююв41199100 0.1 1011354
21:00+1ююв51199100 0.8 1011437